Wetbulb
59.81 59.58 59.22 59.27 60.14 60.11 60.15 60.38 60.51 60.62 60.60 60.44 60.27 60.25 60.48 60.77 59.11 54.76 49.28 56.25 59.24 64.66 61.71 56.35 55.72 54.85 54.13 52.21 53.75 51.94 42.74 40.28 43.39 44.52 45.49 49.76 48.12 48.42 49.41 48.21 48.65 50.42 49.92 51.82 54.24
60.01 59.93 59.68 59.32 58.95 59.13 59.81 60.02 60.04 60.30 60.41 60.44 60.16 60.01 60.54 59.80 53.28 50.13 58.39 66.04 64.72 65.47 55.08 53.12 50.86 51.84 48.93 50.04 50.97 47.39 42.34 43.27 47.15 45.72 45.51 47.89 48.02 47.34 45.65 46.66 46.88 49.05 51.32 53.67 52.37
60.46 60.23 59.94 59.61 59.30 59.08 58.69 58.72 59.57 59.78 59.99 60.16 60.38 60.56 59.66 57.35 49.98 48.72 65.96 65.33 65.31 64.12 56.18 54.14 52.94 51.26 47.61 49.13 48.20 47.01 42.58 47.09 47.59 48.33 48.78 47.57 46.73 48.64 45.04 44.24 47.06 47.20 48.90 51.17 50.51
60.75 60.53 60.28 60.15 59.95 59.51 59.18 58.78 58.53 59.32 59.59 59.88 60.07 60.59 59.09 53.76 40.54 54.28 65.11 65.44 65.59 59.52 56.31 52.62 50.96 47.41 45.52 44.88 48.03 43.48 46.56 47.58 48.55 48.09 47.19 45.46 48.48 46.06 46.17 45.97 48.92 50.78 51.59 51.15 49.61
59.41 59.19 59.34 59.44 59.34 59.40 59.48 59.44 59.45 58.49 59.25 59.50 60.19 59.93 54.72 47.08 46.61 57.67 63.80 63.49 59.33 58.16 53.43 50.86 48.11 47.05 44.42 44.91 46.60 43.84 44.50 46.46 46.92 46.76 45.93 47.54 45.66 45.37 45.39 47.92 47.63 48.46 51.99 50.87 50.17
57.79 57.43 57.13 57.34 58.13 58.96 58.66 58.86 59.53 59.13 58.18 59.17 59.95 59.22 50.01 41.60 52.22 57.00 56.15 56.76 56.30 55.29 52.43 51.41 48.96 49.10 45.92 45.01 43.47 44.09 45.74 45.67 46.35 45.82 46.21 44.49 44.32 44.44 45.71 47.92 47.69 47.61 50.24 50.75 50.43
56.78 56.10 55.97 56.06 56.38 56.63 57.02 57.58 58.93 58.65 57.97 58.56 59.49 55.61 48.56 46.35 53.05 55.45 54.79 54.37 55.19 55.02 51.35 52.50 51.88 48.49 47.26 44.05 47.03 45.12 41.20 43.53 44.23 44.98 44.23 44.99 40.71 42.03 46.99 47.31 46.74 46.39 50.13 50.52 50.64
54.40 54.74 54.97 55.37 55.70 56.43 56.69 56.94 58.09 58.26 57.99 58.06 58.51 53.40 44.67 53.77 54.09 53.21 53.80 53.12 54.85 55.15 54.07 54.01 53.03 49.56 47.55 46.83 44.52 40.64 39.80 35.55 43.50 44.40 44.54 42.88 35.92 44.22 46.74 45.97 44.96 45.08 47.17 49.63 50.17
53.22 53.11 53.31 53.61 54.84 55.09 54.93 55.95 57.66 58.69 57.99 57.68 53.10 49.95 43.85 53.87 50.24 52.87 52.99 51.37 52.15 52.39 52.65 53.23 51.51 46.43 46.15 40.77 37.17 39.38 33.45 36.20 39.99 44.76 43.27 40.80 37.25 44.40 46.40 46.11 43.94 44.21 46.18 47.82 49.07
51.67 52.07 52.59 53.37 53.75 53.99 54.04 55.50 57.70 56.43 56.76 54.95 52.18 45.75 48.18 46.05 50.83 51.67 52.63 52.89 50.03 49.53 48.99 47.49 45.56 41.25 41.05 38.34 30.38 34.43 35.12 37.87 37.80 41.77 42.05 38.84 38.66 42.59 43.53 44.77 42.93 43.39 45.14 46.68 48.17
50.16 51.03 51.14 51.52 52.57 52.85 51.46 52.71 49.92 48.54 49.87 44.93 45.08 44.23 47.17 50.37 52.23 50.42 51.92 50.76 49.96 47.07 40.66 43.97 38.51 35.89 39.29 40.92 40.69 40.31 39.06 37.10 40.91 43.18 39.57 39.21 39.45 41.70 43.56 42.39 41.83 43.00 44.01 46.15 47.76
48.97 49.49 49.83 50.60 51.69 51.76 51.65 49.71 48.25 48.88 41.33 48.21 48.19 47.58 48.89 50.25 45.84 48.42 51.67 45.75 44.57 39.98 43.00 40.81 36.15 41.62 43.86 43.00 41.27 40.13 38.16 37.42 40.38 41.58 39.29 38.55 38.95 42.69 43.91 44.15 43.42 43.80 44.32 45.11 46.72
49.31 49.70 49.07 49.06 49.98 50.60 46.71 49.22 53.22 52.34 42.17 44.22 47.21 46.59 47.59 48.39 44.42 45.87 48.43 46.23 42.51 40.41 40.71 37.59 41.30 44.52 42.92 41.50 40.27 39.58 37.81 37.35 37.20 39.12 39.10 36.13 35.34 38.30 42.33 45.24 46.55 46.23 46.07 46.38 46.58
48.69 48.84 49.16 49.51 44.92 44.51 43.13 52.34 53.51 52.48 36.26 38.12 43.36 46.74 48.12 47.75 42.56 49.14 49.39 46.38 43.51 39.69 41.08 40.20 44.00 43.18 41.35 39.79 41.04 35.99 41.48 40.70 39.14 35.25 28.95 36.83 26.84 37.10 40.85 41.42 43.60 45.51 45.63 45.62 46.03
49.84 48.48 48.31 48.19 42.64 41.53 46.03 48.70 51.14 48.19 23.24 40.84 43.46 49.65 48.08 43.05 45.06 44.39 49.55 46.66 40.91 41.05 41.43 38.27 40.38 40.31 39.77 40.79 42.38 38.45 40.62 39.02 38.54 34.22 31.85 32.90 27.97 35.31 41.27 39.17 41.18 43.92 45.37 45.79 46.87
50.05 49.88 49.77 45.35 43.67 43.50 46.60 48.83 46.70 33.24 21.52 36.90 42.66 40.93 41.08 42.77 43.52 44.55 44.75 47.59 46.78 42.12 41.80 40.80 41.71 41.65 41.95 42.65 42.43 41.53 38.60 37.29 35.15 33.24 25.16 32.90 32.28 32.39 38.62 41.55 42.67 42.45 43.50 44.46 46.04
49.55 49.66 47.93 46.57 39.53 45.89 46.25 42.66 30.58 25.35 37.87 34.90 38.06 40.62 38.99 38.69 39.64 40.95 39.39 38.46 35.91 32.43 33.69 39.00 38.25 40.24 41.65 37.05 39.79 39.19 34.37 26.31 24.48 24.37 24.75 35.10 31.19 35.96 40.40 42.73 41.14 42.81 42.98 42.91 43.78
49.16 48.90 46.86 45.59 45.89 46.38 43.67 32.91 19.62 29.06 32.63 39.36 40.34 39.02 36.74 38.66 38.99 39.30 37.74 35.24 39.29 38.30 33.41 30.99 28.77 36.70 39.72 38.35 34.13 35.82 35.17 28.23 23.65 24.61 27.33 31.60 26.92 34.94 42.16 40.84 41.80 43.42 42.48 42.73 42.70
48.30 43.55 43.24 46.28 47.82 46.87 37.61 24.69 22.92 27.67 32.48 33.86 37.23 34.43 35.56 38.59 38.52 37.92 36.44 36.27 38.58 38.96 33.38 32.32 32.88 40.42 39.76 40.98 40.14 34.57 32.17 37.47 30.63 30.92 24.12 29.60 33.13 39.30 40.09 39.07 40.48 40.20 41.63 40.74 41.51
41.98 40.67 39.95 49.59 45.83 42.09 32.17 26.51 28.84 34.69 35.54 34.18 26.67 33.40 30.54 34.95 35.62 35.43 35.88 39.79 39.23 41.43 42.19 37.88 31.57 37.63 37.33 39.30 38.70 36.31 39.23 29.68 28.91 23.14 23.69 27.66 30.64 32.26 35.20 37.32 39.37 39.01 39.36 40.78 41.97
40.69 33.78 41.34 45.32 43.01 35.45 25.46 27.51 31.95 35.31 34.91 31.48 29.66 29.36 32.81 33.17 35.33 35.29 36.26 39.56 42.37 41.85 42.21 39.75 35.63 31.15 34.81 32.60 33.10 32.37 32.00 34.39 34.28 31.13 24.73 22.03 28.16 38.33 39.36 39.54 40.36 39.90 40.91 41.05 41.37
37.59 28.16 42.24 43.00 30.39 32.07 28.45 30.69 33.52 32.19 35.85 32.95 33.72 33.52 32.19 33.56 33.90 34.73 35.55 38.71 41.43 42.02 38.39 40.77 36.93 26.32 30.10 36.20 39.27 37.74 35.04 34.93 27.05 27.12 27.71 26.90 28.60 38.13 37.89 39.39 41.69 40.90 41.93 41.65 42.41
34.55 32.57 41.54 40.48 25.05 26.59 29.56 28.38 31.39 31.06 31.16 32.53 30.49 32.29 30.42 33.10 33.30 35.08 36.75 38.83 41.14 39.56 34.80 35.61 35.01 27.20 27.74 30.79 33.22 32.68 35.96 37.18 36.55 33.64 27.54 24.23 28.83 36.48 35.89 36.51 39.73 40.50 41.21 42.54 42.69
33.60 27.29 33.11 35.41 34.49 28.54 24.91 24.68 24.74 31.88 31.79 31.80 30.41 30.77 28.04 26.48 32.63 33.12 35.90 37.99 39.35 39.33 42.31 40.38 35.53 33.29 29.15 30.94 33.48 29.48 34.00 36.38 35.39 27.89 29.66 30.88 31.91 33.29 34.52 35.47 36.97 39.43 40.24 41.14 42.36
33.36 29.52 32.67 25.08 27.44 28.49 27.95 26.65 23.99 23.24 31.35 31.43 29.20 26.95 26.53 23.77 25.13 26.43 33.49 34.09 38.76 40.30 38.30 37.39 30.89 33.29 34.52 37.24 35.66 33.59 33.39 34.74 33.46 34.73 29.55 32.86 34.41 38.46 37.84 36.23 37.93 40.47 40.71 40.85 41.16
32.08 31.08 33.39 29.46 30.27 27.77 27.71 25.43 25.15 25.23 26.21 25.08 24.58 26.58 27.50 25.98 25.94 24.44 27.73 28.20 30.92 36.19 35.16 37.12 30.19 32.32 30.01 35.00 34.89 30.70 34.81 34.96 35.36 35.69 34.97 35.38 34.69 38.06 36.26 37.10 37.57 38.66 40.52 40.42 40.65
35.89 37.85 34.16 29.36 27.49 25.60 25.52 26.60 26.50 28.52 28.84 29.22 28.03 26.13 25.17 27.94 30.47 31.07 32.57 33.67 33.30 31.89 34.12 34.08 32.61 29.72 26.72 31.98 32.23 28.57 33.36 34.43 34.78 35.40 35.83 31.40 36.76 38.63 36.09 38.05 38.74 39.24 40.56 40.35 40.32
MSLP
1017.58 1017.25 1016.92 1016.62 1016.17 1015.63 1015.28 1014.89 1014.58 1014.29 1013.86 1013.47 1013.18 1012.91 1012.70 1012.39 1012.08 1011.75 1010.61 1009.22 1009.02 1009.50 1009.78 1009.65 1009.62 1009.60 1009.67 1009.54 1009.45 1009.41 1009.44 1008.34 1007.31 1006.55 1005.87 1005.93 1006.74 1007.34 1007.71 1008.19 1008.69 1009.31 1010.33 1010.96 1012.87
1017.40 1017.09 1016.91 1016.66 1016.33 1015.92 1015.52 1014.99 1014.39 1014.07 1013.85 1013.52 1013.14 1012.78 1012.44 1012.21 1011.70 1010.21 1009.27 1008.68 1008.93 1009.29 1009.68 1009.51 1009.38 1009.44 1009.48 1009.17 1009.28 1009.27 1008.59 1007.44 1006.60 1006.11 1005.93 1005.91 1006.52 1007.27 1008.11 1008.45 1009.00 1009.83 1010.99 1011.84 1013.14
1017.57 1017.19 1016.82 1016.39 1016.01 1015.83 1015.59 1015.11 1014.60 1014.03 1013.47 1013.23 1013.12 1012.86 1012.47 1012.05 1011.06 1007.90 1007.45 1008.12 1008.64 1009.02 1009.17 1008.91 1008.93 1008.92 1009.20 1008.73 1008.73 1008.39 1007.59 1006.95 1006.21 1006.10 1006.35 1006.37 1006.58 1007.02 1007.95 1008.42 1008.40 1009.36 1011.05 1012.25 1012.94
1017.62 1017.27 1016.86 1016.43 1016.01 1015.60 1015.04 1014.78 1014.42 1013.91 1013.55 1012.98 1012.60 1012.70 1012.46 1011.78 1010.01 1007.53 1007.44 1008.39 1008.77 1008.95 1009.18 1008.91 1008.89 1008.89 1008.72 1008.27 1007.91 1007.84 1007.05 1006.71 1006.40 1006.61 1006.92 1007.05 1006.71 1006.98 1007.27 1007.53 1007.58 1008.42 1009.84 1011.58 1012.80
1017.93 1017.53 1017.11 1016.49 1015.84 1015.30 1014.89 1014.45 1013.90 1013.46 1013.34 1012.95 1012.69 1012.30 1012.41 1011.07 1008.03 1007.32 1007.51 1007.94 1008.62 1008.88 1008.65 1008.67 1008.46 1008.33 1007.82 1007.13 1007.09 1006.91 1006.85 1006.63 1006.48 1006.91 1007.38 1007.38 1007.15 1007.08 1006.86 1007.12 1007.73 1008.12 1009.14 1010.60 1011.95
1018.20 1017.74 1017.18 1016.59 1015.88 1015.09 1014.42 1013.99 1013.41 1012.93 1012.58 1012.89 1012.59 1012.64 1012.02 1009.78 1006.80 1006.94 1007.16 1007.82 1007.90 1008.58 1008.84 1008.50 1007.92 1007.67 1007.30 1006.90 1006.83 1006.51 1006.85 1006.86 1006.73 1007.02 1007.43 1007.69 1007.58 1007.50 1006.69 1006.82 1007.59 1008.21 1009.14 1009.88 1010.88
1018.32 1017.83 1017.24 1016.62 1015.81 1015.07 1014.15 1013.31 1012.71 1012.28 1011.78 1012.05 1012.56 1012.42 1010.69 1007.25 1006.30 1006.74 1007.16 1007.03 1007.33 1007.75 1008.17 1008.29 1007.91 1007.89 1007.13 1007.21 1006.50 1006.77 1007.24 1007.09 1006.86 1007.30 1007.76 1007.98 1007.79 1006.51 1006.53 1006.62 1007.21 1007.89 1008.66 1009.43 1010.26
1018.52 1018.01 1017.32 1016.59 1015.90 1014.88 1013.73 1012.81 1011.91 1011.42 1011.41 1010.82 1011.87 1012.20 1008.89 1005.92 1005.72 1006.23 1006.78 1007.10 1007.02 1007.12 1007.42 1007.53 1007.67 1007.78 1007.46 1007.01 1006.90 1007.19 1007.45 1007.01 1005.91 1006.73 1007.48 1007.97 1006.11 1005.04 1005.34 1006.36 1006.79 1007.31 1008.04 1008.67 1009.35
1018.84 1018.10 1017.34 1016.53 1015.71 1014.70 1013.68 1012.16 1011.04 1010.45 1010.64 1010.60 1011.14 1011.25 1008.11 1005.88 1005.24 1004.83 1005.68 1006.39 1006.99 1006.96 1007.28 1007.52 1007.79 1007.95 1007.61 1007.70 1007.72 1007.31 1006.85 1006.50 1006.04 1006.04 1006.92 1007.50 1005.96 1004.67 1004.28 1005.37 1006.08 1006.70 1007.39 1008.06 1008.68
1019.01 1018.33 1017.57 1016.86 1015.66 1014.64 1013.32 1011.34 1010.19 1010.16 1010.40 1010.08 1009.84 1009.98 1007.34 1005.65 1004.71 1004.51 1005.17 1005.76 1006.79 1007.21 1007.38 1007.49 1007.83 1007.65 1007.69 1007.73 1006.34 1006.25 1006.52 1005.93 1005.69 1006.06 1006.47 1006.95 1005.91 1005.49 1005.06 1005.22 1005.50 1006.16 1006.53 1007.10 1007.67
1018.90 1018.17 1017.29 1016.22 1015.23 1014.25 1013.24 1011.22 1010.21 1010.19 1008.96 1007.52 1006.65 1005.62 1004.66 1005.20 1005.24 1004.48 1004.48 1005.17 1005.98 1007.06 1006.79 1006.67 1007.23 1006.28 1006.29 1006.50 1006.24 1005.68 1005.25 1005.01 1004.54 1004.36 1005.61 1005.86 1005.58 1005.03 1004.97 1005.12 1005.09 1005.26 1005.53 1005.72 1006.18
1018.80 1018.20 1017.32 1016.40 1014.73 1013.28 1012.59 1011.55 1010.82 1010.77 1008.93 1006.93 1006.02 1005.13 1004.29 1004.59 1005.00 1005.07 1004.92 1004.61 1004.90 1005.53 1006.25 1006.40 1004.74 1005.00 1005.44 1005.55 1005.59 1005.55 1005.11 1004.59 1004.63 1005.10 1005.48 1005.64 1005.01 1004.16 1003.93 1003.53 1003.55 1003.73 1004.10 1004.35 1005.24
1018.68 1017.96 1017.16 1016.09 1014.45 1012.95 1012.34 1011.30 1010.89 1010.60 1009.23 1004.79 1004.07 1002.85 1002.91 1003.50 1003.07 1003.50 1004.62 1003.95 1003.46 1003.93 1004.44 1004.28 1003.03 1003.87 1004.34 1004.26 1004.45 1004.24 1004.52 1004.76 1005.03 1005.59 1005.78 1005.98 1004.64 1003.75 1002.14 1001.65 1001.76 1001.99 1002.45 1003.15 1003.77
1018.64 1017.91 1016.97 1016.18 1014.41 1013.42 1012.28 1011.34 1011.25 1010.82 1008.43 1002.87 1001.46 1000.20 1000.80 1001.32 1001.09 1001.81 1002.45 1003.08 1002.63 1002.26 1002.97 1003.10 1003.11 1002.89 1003.11 1003.32 1003.77 1003.79 1004.08 1004.54 1005.18 1005.85 1006.23 1005.71 1004.17 1002.20 1001.20 1000.75 1000.66 1000.72 1001.21 1001.95 1002.78
1018.32 1017.67 1016.89 1016.29 1015.35 1014.39 1012.50 1011.44 1011.63 1010.89 1006.96 1001.09 999.45 999.51 999.49 999.96 999.11 999.51 1000.23 1001.79 1001.23 1001.44 1001.74 1000.45 1001.17 1001.97 1002.41 1002.30 1003.09 1003.46 1004.06 1004.67 1005.21 1005.93 1006.35 1006.02 1005.49 1001.29 1000.28 1000.03 999.63 999.72 1000.07 1000.65 1001.64
1017.96 1017.12 1016.30 1015.05 1014.45 1013.57 1012.56 1012.27 1012.00 1010.23 1004.79 1000.28 999.41 999.83 1000.10 999.85 999.47 999.95 1000.27 1001.03 1001.03 1001.50 1000.87 1000.65 1001.06 1001.41 1001.42 1002.50 1002.91 1003.69 1004.81 1005.51 1006.07 1006.75 1006.30 1005.45 1004.88 1000.68 999.98 999.00 998.65 998.77 999.28 1000.04 1001.08
1017.74 1016.74 1016.11 1014.87 1013.41 1012.84 1012.56 1012.32 1011.38 1007.17 1004.21 1001.11 999.62 999.62 1000.34 1000.29 1000.58 1000.63 1000.53 1000.61 1000.60 1001.36 1000.59 1000.59 1001.00 1001.41 1001.75 1003.13 1003.72 1003.90 1005.15 1006.35 1007.00 1006.95 1005.10 1003.83 1003.83 1000.08 999.02 998.36 998.32 999.08 999.61 1000.24 1001.20
1017.19 1015.99 1014.39 1013.39 1012.66 1012.04 1012.21 1012.29 1010.65 1007.11 1005.13 1000.87 999.75 998.96 998.79 999.46 999.88 1000.48 1000.69 1000.41 1000.36 999.69 999.71 1000.23 1001.05 1001.00 1001.33 1001.21 1002.49 1003.41 1003.77 1004.24 1004.82 1005.01 1004.69 1003.98 1002.19 999.85 998.47 998.61 998.67 999.18 1000.07 1000.70 1001.78
1017.25 1015.43 1013.88 1012.65 1012.14 1012.08 1012.37 1011.69 1009.63 1007.19 1005.36 1004.71 1002.39 1001.23 999.98 999.53 998.77 999.39 999.89 999.82 999.40 999.75 999.39 999.36 999.74 999.35 1000.36 1000.99 1001.46 1003.30 1003.16 1003.06 1003.72 1003.84 1004.48 1003.17 1001.59 999.75 998.79 998.83 999.42 1000.07 1000.82 1001.78 1002.38
1017.18 1015.41 1013.04 1012.11 1012.04 1012.22 1012.56 1010.73 1009.36 1008.32 1007.74 1006.66 1005.65 1004.71 1002.37 1000.07 999.81 998.73 998.86 998.08 998.14 998.26 998.45 997.86 999.23 1000.15 1001.09 1001.46 1001.48 1001.56 1002.22 1003.38 1003.95 1003.87 1003.58 1001.95 1000.89 999.59 999.13 999.22 999.79 1000.47 1001.29 1002.15 1002.94
1016.81 1015.17 1012.30 1011.76 1011.89 1011.77 1011.81 1010.87 1010.29 1009.87 1009.57 1008.91 1006.17 1005.78 1004.53 1002.94 1000.46 998.06 997.73 997.73 996.96 997.04 997.69 997.84 998.63 1001.31 1001.76 1001.21 1000.37 1001.82 1001.58 1001.49 1001.85 1002.25 1002.14 1001.66 1000.04 998.62 998.06 998.44 999.28 1000.22 1001.40 1002.30 1003.21
1016.81 1015.21 1012.27 1012.25 1012.54 1011.78 1011.69 1012.25 1011.65 1010.16 1009.77 1009.10 1007.45 1005.76 1005.31 1003.55 1001.18 999.18 997.35 996.96 996.51 997.05 997.15 996.91 998.18 1000.38 1000.67 1000.29 1000.23 1000.21 1000.12 1000.63 1000.77 1001.31 1001.21 1001.37 1000.11 998.68 998.63 999.00 999.39 1000.34 1001.33 1002.28 1003.47
1016.02 1014.57 1012.38 1012.17 1012.48 1012.25 1012.20 1011.98 1011.43 1010.69 1010.34 1009.92 1009.08 1008.24 1007.11 1004.03 1002.33 1000.75 998.26 997.88 997.21 997.32 998.89 999.45 998.55 999.84 1000.71 1001.04 1000.72 1000.11 999.80 999.95 1000.15 1000.56 1000.32 1000.89 1000.13 999.29 999.25 999.49 999.83 1000.58 1001.49 1002.52 1003.55
1016.01 1014.48 1012.63 1011.97 1012.10 1012.40 1012.45 1011.94 1011.33 1010.94 1010.79 1010.92 1010.31 1009.28 1008.57 1006.59 1003.26 1001.85 1000.14 999.47 998.86 998.73 998.76 999.62 999.67 999.22 998.45 998.27 998.73 999.62 999.13 999.07 999.63 1000.01 999.43 999.67 999.57 999.57 999.61 999.92 1000.13 1000.80 1001.75 1002.63 1003.63
1015.36 1014.80 1013.27 1012.81 1012.49 1012.64 1012.82 1012.38 1011.72 1011.06 1011.21 1010.73 1010.00 1010.16 1009.84 1008.10 1006.00 1004.17 1002.86 1001.66 1000.45 1000.05 1000.12 1000.52 1001.34 999.73 998.89 998.66 998.36 998.18 998.17 998.35 998.62 998.04 998.75 998.46 998.72 998.61 998.53 999.02 999.44 999.95 1001.26 1002.55 1003.79
1015.14 1014.39 1013.85 1013.12 1012.79 1012.76 1012.43 1011.81 1011.33 1011.16 1011.23 1010.36 1010.22 1009.71 1009.97 1009.21 1008.18 1006.21 1005.49 1004.53 1003.04 1001.59 1000.98 1001.35 1001.04 1000.46 999.34 998.45 998.72 998.57 998.21 997.93 997.76 997.79 998.08 998.14 997.73 997.47 997.83 998.34 999.34 999.78 1000.61 1001.64 1003.09
1014.51 1014.23 1013.50 1013.19 1012.73 1012.42 1011.67 1011.01 1010.85 1010.78 1010.70 1010.42 1009.74 1009.03 1008.64 1008.06 1007.12 1006.15 1005.30 1004.33 1003.90 1003.58 1002.73 1001.60 1001.41 1000.71 999.71 999.47 999.18 998.49 997.78 997.74 997.57 997.36 997.22 997.51 996.76 997.24 997.67 997.81 998.24 998.94 999.65 1000.53 1002.00
Wind_Speed
23 23 23 23 21 17 16 15 15 15 15 12 11 11 9 9 13 8 13 6 11 11 3 4 5 7 7 5 2 1 3 6 11 9 7 9 7 4 5 7 2 6 6 7 22
20 21 22 23 24 22 20 18 17 15 15 15 12 9 9 8 5 15 14 11 16 14 7 10 10 9 5 6 5 5 5 10 8 4 4 3 9 10 3 5 5 7 6 18 20
20 21 21 20 19 21 23 23 21 18 16 14 13 10 7 8 7 7 9 19 15 10 7 5 8 7 10 6 7 7 8 7 8 3 6 4 7 6 8 8 9 13 12 18 17
20 21 21 23 22 20 17 18 21 21 18 16 12 10 9 5 8 4 11 10 12 9 8 6 7 6 7 11 9 7 8 8 2 4 2 3 4 7 10 10 5 14 20 18 17
24 25 24 22 22 23 22 21 19 17 19 16 13 8 6 8 11 9 12 11 6 3 7 9 10 9 8 7 10 7 5 9 3 2 4 7 10 10 9 9 3 4 23 23 19
24 24 24 24 24 20 21 23 23 20 12 16 13 6 5 16 5 13 10 10 9 10 10 11 7 11 8 11 9 1 6 11 5 5 5 6 8 4 8 8 10 8 19 19 20
24 25 25 26 26 25 25 25 25 22 11 9 13 8 12 21 3 9 9 6 8 10 12 11 11 7 3 7 7 2 4 8 8 8 7 7 10 16 17 7 11 12 15 16 18
26 26 27 26 27 28 27 28 25 19 14 7 7 10 12 8 20 11 11 9 10 8 6 7 5 7 7 3 2 2 4 4 9 14 5 10 12 15 15 16 14 13 10 15 18
28 29 29 29 28 29 30 34 26 14 10 7 5 6 13 2 11 16 15 10 8 7 5 1 2 5 2 3 4 9 6 11 6 16 7 10 9 7 12 18 12 11 13 13 15
28 29 29 30 30 30 33 34 14 2 6 8 6 2 10 12 5 10 12 12 8 8 5 6 5 6 5 8 12 8 14 9 9 12 11 12 19 9 5 13 12 11 13 15 16
28 29 30 30 29 32 23 12 3 5 10 13 13 9 9 3 6 7 15 14 10 10 9 12 8 17 21 20 16 12 13 7 9 12 9 17 17 16 11 9 12 13 13 18 19
27 28 30 31 36 32 15 6 4 2 12 17 23 22 19 4 6 9 11 13 14 17 12 7 21 19 15 16 20 18 17 15 9 5 6 6 16 15 14 18 20 20 18 17 16
28 27 29 31 33 15 12 12 6 7 9 12 21 18 17 22 17 17 18 11 16 18 17 18 5 21 16 18 16 14 17 13 10 5 6 4 12 14 15 23 19 19 19 18 18
27 29 28 29 15 13 14 13 15 7 8 12 10 12 19 12 20 21 25 12 10 22 21 16 20 11 13 21 16 16 9 10 9 3 5 8 8 5 9 12 19 22 17 18 15
26 29 29 24 12 10 15 17 12 6 8 8 10 6 4 20 7 16 26 21 19 12 13 14 13 20 18 16 16 10 3 4 7 6 3 7 4 6 12 9 9 19 18 17 19
27 29 29 14 8 15 15 11 5 9 10 9 7 5 2 18 6 5 11 8 3 9 13 15 3 5 13 5 7 11 7 4 2 2 5 11 11 7 9 11 6 4 10 10 16
28 30 26 14 12 14 12 7 7 11 11 18 7 9 8 7 10 7 12 21 12 11 19 17 9 4 6 7 5 8 9 2 2 3 9 11 11 15 6 6 3 6 7 8 9
29 32 19 12 11 10 4 4 9 12 19 20 8 28 16 14 13 15 10 15 22 13 5 13 8 14 11 10 11 12 11 8 9 6 5 4 9 7 10 4 2 9 7 9 9
26 12 11 6 8 7 3 6 6 9 15 19 28 23 10 11 9 15 19 18 14 26 9 11 11 6 14 7 15 7 15 8 6 4 3 6 7 9 6 4 6 8 6 8 9
9 12 10 1 9 3 3 11 12 13 26 28 28 9 22 21 14 10 13 12 23 22 23 5 4 1 4 5 4 6 8 4 3 6 7 6 7 7 5 9 9 9 9 8 8
7 7 6 11 9 5 4 6 11 13 13 9 21 17 14 20 24 15 10 7 17 20 24 14 3 2 6 10 14 5 5 7 5 6 6 2 7 3 7 9 13 10 9 10 10
4 5 4 11 7 5 5 7 18 14 15 8 16 16 17 23 10 14 19 20 6 8 22 22 4 6 9 1 12 11 8 10 6 5 6 5 7 4 8 7 7 9 10 10 10
4 6 6 6 4 6 9 11 10 13 13 7 8 15 25 15 7 11 6 2 4 7 4 5 8 5 4 2 2 7 11 13 12 5 8 7 5 2 6 5 5 9 10 11 12
2 4 3 2 1 4 7 11 16 12 5 9 10 11 19 21 16 7 8 3 5 5 12 13 6 14 10 4 9 8 15 20 16 7 11 11 2 4 6 8 7 10 11 11 13
2 4 4 4 6 9 8 10 15 16 2 7 4 17 14 11 16 13 12 14 12 7 6 7 6 5 9 8 4 4 12 19 21 21 10 8 14 13 7 13 15 13 15 14 14
4 4 3 7 9 13 9 9 13 11 15 11 12 17 12 8 13 19 19 12 12 10 4 8 5 5 7 12 2 3 6 13 20 19 17 15 15 6 1 6 9 12 18 18 18
4 4 5 6 4 7 9 11 10 12 6 14 14 17 16 16 16 18 19 19 17 13 6 6 5 4 6 3 9 4 13 11 7 7 15 17 19 9 7 11 14 15 19 21 21
Wind_Direction
9 7 3 358 352 348 337 326 315 308 301 293 299 307 312 318 308 261 243 240 180 146 134 252 216 224 233 240 201 235 264 245 248 266 266 124 153 104 1 119 140 144 58 116 142
11 9 6 1 356 351 344 334 321 309 301 297 292 293 308 319 270 258 257 142 143 151 188 203 207 202 216 209 195 192 215 234 246 317 329 122 166 152 157 190 184 139 84 129 141
4 2 0 1 360 354 347 341 329 314 302 295 295 292 295 300 281 263 336 169 156 165 251 234 254 218 216 219 198 217 235 246 280 37 33 314 182 192 164 226 195 188 148 148 155
359 360 358 354 352 348 344 337 334 321 304 292 286 292 307 257 248 103 85 129 150 175 220 203 221 208 216 218 203 236 240 245 310 81 49 254 255 228 179 212 200 180 160 158 174
1 358 355 352 348 343 338 332 327 323 310 292 280 275 291 230 245 161 135 134 150 209 205 220 217 206 230 227 225 207 271 285 305 97 239 283 265 219 238 209 131 295 158 168 178
358 356 353 348 342 337 333 328 322 315 303 296 278 268 233 250 275 141 156 150 178 187 219 224 232 226 272 248 236 146 265 258 206 216 241 230 252 244 229 218 177 208 168 174 181
354 349 347 343 338 333 327 320 313 308 276 278 277 248 252 233 179 158 176 186 191 185 219 222 259 279 238 266 255 327 283 254 239 202 242 179 259 231 220 218 202 190 173 178 187
346 345 344 341 336 329 324 317 308 300 266 198 250 265 255 252 227 195 182 211 193 203 244 289 237 282 252 41 13 232 231 246 215 180 208 145 255 229 206 205 209 184 192 189 190
344 342 341 338 334 328 324 314 302 283 221 172 162 211 270 289 218 208 180 197 190 194 197 219 134 244 141 218 247 205 242 220 277 173 141 181 268 285 186 191 201 187 196 196 193
343 343 341 337 332 326 322 308 279 161 199 180 251 221 251 252 186 198 192 193 167 160 148 179 197 204 190 192 213 223 217 240 237 193 183 192 251 276 309 193 197 205 200 199 198
342 341 339 335 327 321 324 312 233 210 212 198 187 212 309 116 350 222 181 180 190 179 192 189 182 204 207 214 230 271 265 261 257 154 160 221 236 237 225 212 218 214 218 204 199
339 334 334 334 326 316 303 275 9 331 288 243 255 247 253 161 252 221 168 175 183 200 211 177 219 211 212 222 226 237 256 263 287 175 179 229 248 256 227 225 211 209 212 215 192
336 334 332 331 318 312 331 302 328 289 256 236 222 229 222 212 217 195 190 209 186 191 199 215 212 208 217 229 241 233 232 252 231 167 230 312 274 240 242 233 228 216 211 211 196
333 332 334 335 318 342 304 12 340 305 266 260 211 240 210 188 229 206 192 181 218 205 200 229 229 223 204 223 225 238 240 233 260 243 237 150 276 270 282 228 223 229 209 204 205
329 328 328 327 284 278 294 323 351 293 238 266 223 355 25 186 122 202 183 213 219 198 176 209 183 210 224 222 209 226 93 256 210 233 284 223 279 247 217 260 230 219 216 199 197
325 323 322 315 283 271 283 318 338 221 237 235 118 161 191 203 228 9 161 223 234 238 239 221 100 182 218 197 191 129 97 71 20 197 251 217 209 207 219 232 243 189 202 182 180
325 320 316 291 284 301 296 299 256 236 210 256 205 169 201 219 242 191 194 200 185 186 219 211 183 122 132 98 128 132 131 199 275 213 234 188 208 248 263 225 132 158 163 165 150
327 318 306 294 278 275 272 252 242 278 256 285 293 223 199 171 220 200 189 214 223 235 164 197 202 162 193 186 165 200 171 167 202 197 231 29 228 252 227 354 129 123 141 133 146
325 310 291 326 16 355 234 223 236 241 275 257 300 271 197 220 199 192 210 223 219 223 212 190 236 141 168 176 148 187 215 230 331 344 75 209 258 302 213 214 143 132 132 147 148
318 297 279 15 348 326 259 237 250 293 322 310 296 299 309 269 214 185 193 223 229 211 225 246 172 304 63 72 307 152 155 163 237 193 233 235 224 219 210 198 180 165 163 151 142
296 301 275 352 322 268 244 266 310 335 341 328 294 278 292 282 292 193 186 240 217 220 204 226 190 122 117 219 170 137 205 211 178 200 181 137 256 313 195 174 186 165 161 151 147
277 275 301 318 309 288 294 20 314 321 329 308 305 283 299 278 286 253 202 215 84 290 195 207 228 165 199 44 218 211 201 194 146 213 208 160 262 82 84 76 131 150 152 141 144
261 267 268 248 281 324 307 321 318 343 342 342 318 354 341 279 252 260 238 62 39 92 39 359 204 240 127 107 350 220 212 221 239 308 201 153 246 94 99 93 68 127 125 138 139
207 274 272 287 278 277 350 326 331 320 333 334 309 7 351 315 354 296 324 32 15 51 71 34 281 220 208 194 144 194 205 210 211 223 229 232 248 202 187 178 172 145 141 146 151
193 242 263 277 289 319 307 303 308 322 13 341 309 2 352 322 324 1 337 343 300 108 62 105 278 347 328 346 103 201 206 207 212 223 199 188 215 242 224 196 189 165 150 154 158
230 208 305 267 279 289 299 283 311 352 336 327 315 331 325 288 305 308 314 317 292 9 125 158 220 352 312 333 338 261 280 208 219 229 243 264 264 252 162 114 164 177 167 168 172
224 254 163 230 261 270 267 286 298 309 285 309 305 312 309 299 305 289 279 268 255 277 254 166 158 136 260 343 301 264 232 235 236 207 214 226 232 234 221 208 191 184 178 179 179